This is the latest recevied weather packets stored in our database for station/object S51UL-6. If no packets are shown the sender has not sent any weather packets the latest 10 day(s).
| Time | Temp. | Humidity | Pressure | Rain* | Wind** | Luminosity | Snow |
|---|---|---|---|---|---|---|---|
| 1788646827 | 14.44° C | 89% | 1024.2 hPa | 229.62 mm | - | - | - |
| 1788646525 | 14.44° C | 89% | 1024.1 hPa | 211.58 mm | - | - | - |
| 1788646225 | 14.44° C | 89% | 1024.1 hPa | 211.07 mm | - | - | - |
| 1788645925 | 15° C | 89% | 1024.1 hPa | 231.14 mm | - | - | - |
| 1788645025 | 15° C | 89% | 1024.2 hPa | 199.64 mm | - | - | - |
| 1788644726 | 15° C | 89% | 1024.2 hPa | 245.11 mm | - | - | - |
| 1788644426 | 15° C | 89% | 1024.1 hPa | 252.48 mm | - | - | - |
| 1788644128 | 15° C | 89% | 1023.9 hPa | 233.17 mm | - | - | - |
| 1788643825 | 15° C | 89% | 1023.9 hPa | 238 mm | - | - | - |
| 1788643527 | 15° C | 88% | 1024 hPa | 253.75 mm | - | - | - |
| 1788643225 | 15.56° C | 88% | 1024 hPa | 253.75 mm | - | - | - |
| 1788642953 | 15.56° C | 88% | 1023.9 hPa | 243.08 mm | - | - | - |
| 1788642627 | 15.56° C | 88% | 1023.9 hPa | 223.27 mm | - | - | - |
| 1788642325 | 15.56° C | 89% | 1023.9 hPa | 247.14 mm | - | - | - |
| 1788641726 | 15.56° C | 89% | 1023.7 hPa | 231.65 mm | - | - | - |
| 1788641426 | 15.56° C | 88% | 1023.6 hPa | 185.93 mm | - | - | - |
| 1788641127 | 15.56° C | 88% | 1023.4 hPa | 230.12 mm | - | - | - |
| 1788640526 | 15.56° C | 88% | 1023.3 hPa | 189.74 mm | - | - | - |
| 1788640226 | 15.56° C | 88% | 1023.6 hPa | 188.21 mm | - | - | - |
| 1788639928 | 15.56° C | 88% | 1023.5 hPa | 189.23 mm | - | - | - |
| 1788639326 | 16.11° C | 88% | 1023.6 hPa | 185.42 mm | - | - | - |
| 1788639026 | 16.11° C | 88% | 1023.5 hPa | 161.04 mm | - | - | - |
| 1788638428 | 16.11° C | 88% | 1023.3 hPa | 182.37 mm | - | - | - |
| 1788637827 | 16.67° C | 88% | 1023.3 hPa | 149.86 mm | - | - | - |
| 1788637526 | 16.67° C | 88% | 1023.3 hPa | 198.37 mm | - | - | - |
* Rain latest hour (hover to see other rain measurements)
** Current wind speed in m/s (hover to see current wind gust speed)